DELTA 1 DEB, 7051

Orbit data source: Space-Track

DELTA 1 DEB, 7051 is space debris in SSO originally from a launch on Tue, 06 Nov 1973 UTC launched from the Air Force Western Test Range (AFWTR). Debris objects in space refer to the collection of defunct objects orbiting the Earth. Examples of debris include non-operational satellites, rocket bodies, and fragments generated from explosions, collisions, or faulty payload assembly.

Loading next visibility...
Identifier
7051, 1973-086AT
Orbit
SSO
Country
Flag of USUS
Related business
Manufacturer
Unknown
Mission
Spacecraft
Bus & Motor
Unknown
Mass
Unknown
Launch date (UTC)
1973-11-06 (53 years ago)
Launch vehicle
Unknown
Launch site
Air Force Western Test Range (AFWTR)
Object type
Payload
Rocket body
Debris
Shape & HBR
Unknown shape, 0.1 m
Radar Cross Section
Medium (>0.1 m² and <1 m²)

Expand to show TLE details & history
Last TLE update: 21 hours ago

TLE from 21 hours ago
0 DELTA 1 DEB
1 07051U 73086AT  26206.54345608  .00000005  00000-0  43296-3 0  9990
2 07051 102.5158 231.0934 0066378  31.0944 123.2444 12.28989735357425
Epoch: 2026-07-25T13:02Z
TLE epoch observation values (Epoch: 2026-07-25T13:02:34.605Z)
Latitude
24.41989°
Longitude
-82.04848°
Altitude
1,585.334 km
Speed
7.065 km/s
True Right ascension
03h 47m 23s
True Declination
24° 18' 15"
Sunlit
Object was in daylight at epoch
Visualization orbit readout
Latitude
Unknown
Longitude
Unknown
Altitude
Unknown
Speed
Unknown
Apparent Right ascension
Unknown
Apparent Declination
Unknown
Sunlit
N/A
Visualization observer readout
Local Sidereal Time
23:19:01
Azimuth
Unknown
Elevation
Unknown
Doppler factor
Unknown
Orbital elements
Apogee altitude
1,603.879 km
Perigee altitude
1,498.611 km
Semi-major axis
7,929.382 km
Eccentricity
0.00664
Inclination
102.5158°
RAAN
231.0934°
Arg. of periapsis
31.0944°
True anomaly
123.87766°
Mean anomaly
123.2444°
Eccentric anomaly
123.56132°
Mean motion
3.07386 °/min
Orbital period
117.12 mins
BSTAR
0.00043296
Loading maneuver chart data...
Computing Atmospheric mass density...
Loading historical data...
Loading historical data...
Loading historical data...
Loading historical data...
Loading historical data...
Loading historical data...
Loading historical data...

Documentation

Showing up to 5 results
|